Mullan Pass, ID

10:05 AM PDT on October 15, 2019 (GMT -0700)
Mullan Pass

Weather History for KMLP - August, 2019

Change the Weather History Date:

Friday, August 9, 2019

  Actual Average (K3TH) Record (K3TH)
Temperature  
Mean Temperature 58 °F -  
Max Temperature 64 °F 85 °F 102 °F (2000)
Min Temperature 51 °F 56 °F 48 °F (1997)
Degree Days  
Heating Degree Days 8    
Growing Degree Days 8 (Base 50)    
Moisture  
Dew Point 51 °F    
Average Humidity 89    
Maximum Humidity 100    
Minimum Humidity 50    
Precipitation  
Precipitation 0.44 in - - ()
Sea Level Pressure  
Sea Level Pressure 29.97 in    
Wind  
Wind Speed 4 mph (SE)    
Max Wind Speed 8 mph    
Max Gust Speed -    
Visibility 5 miles    
Events Fog , Rain    
Averages and records for this station are not official NWS values.
T = Trace of Precipitation, MM = Missing Value Source: NWS Daily Summary

Daily Weather History Graph

Daily Weather History Graph

Search for Another Location

Airport or City:

Astronomy

Aug. 09, 2019 Rise Set
Actual Time 5:30 AM PDT 8:04 PM PDT
Civil Twilight 4:56 AM PDT 8:39 PM PDT
Nautical Twilight 4:12 AM PDT 9:22 PM PDT
Astronomical Twilight 3:21 AM PDT 10:13 PM PDT
Moon 3:55 PM PDT (8/9) 12:28 AM PDT (8/9)
Length of Visible Light 15h 43m
Length of Day
14h 33m
Waxing Gibbous, 71% of the Moon is Illuminated
Aug 9
Waxing Gibbous
Aug 15
Full
Aug 23
Last Quarter
Aug 30
New
Sep 5
First Quarter

Hourly Weather History & Observations

Time (PDT) Temp. Dew Point Humidity Pressure Visibility Wind Dir Wind Speed Gust Speed Precip Events Conditions
12:53 AM 64.0 °F 45.0 °F 50% 29.74 in 10.0 mi SSW 5.8 mph - N/A   Partly Cloudy
1:53 AM 62.1 °F 45.0 °F 53% 29.73 in 10.0 mi SSE 6.9 mph - N/A   Mostly Cloudy
2:53 AM 60.1 °F 48.0 °F 64% 29.77 in 10.0 mi Variable 4.6 mph - N/A   Overcast
3:53 AM 57.0 °F 48.9 °F 74% 29.77 in 10.0 mi WNW 5.8 mph - 0.00 in Rain Light Rain
4:53 AM 55.9 °F 48.9 °F 77% 29.78 in 8.0 mi Calm Calm - 0.01 in Rain Light Rain
5:53 AM 55.0 °F 48.9 °F 80% 29.80 in 10.0 mi South 5.8 mph - 0.03 in Rain Light Rain
6:53 AM 53.1 °F 51.1 °F 93% 29.81 in 5.0 mi South 8.1 mph - 0.06 in Rain Light Rain
7:11 AM 52.0 °F 51.1 °F 97% 30.10 in 2.5 mi South 4.6 mph - 0.09 in Rain Heavy Rain
7:23 AM 52.0 °F 50.0 °F 93% 30.10 in 3.0 mi South 3.5 mph - 0.13 in Rain Heavy Rain
7:53 AM 52.0 °F 50.0 °F 93% 29.83 in 2.5 mi Calm Calm - 0.22 in Rain Rain
8:48 AM 51.8 °F 51.8 °F 100% 30.10 in 1.2 mi North 8.1 mph - 0.08 in Rain Light Rain
8:53 AM 52.0 °F 51.1 °F 97% 29.83 in 1.0 mi North 8.1 mph - 0.08 in Rain Light Rain
8:59 AM 52.0 °F 50.0 °F 93% 30.10 in 2.0 mi North 6.9 mph - 0.00 in Rain Light Rain
9:28 AM 52.0 °F 50.0 °F 93% 30.11 in 3.0 mi NNW 4.6 mph - 0.02 in Rain Light Rain
9:53 AM 52.0 °F 50.0 °F 93% 29.83 in 3.0 mi NNW 4.6 mph - 0.03 in Rain Light Rain
10:20 AM 52.0 °F 48.9 °F 89% 30.10 in 5.0 mi North 4.6 mph - 0.01 in Rain Light Rain
10:45 AM 52.0 °F 50.0 °F 93% 30.11 in 2.5 mi NNE 5.8 mph - 0.01 in   Overcast
10:53 AM 52.0 °F 48.9 °F 89% 29.85 in 4.0 mi Variable 5.8 mph - 0.01 in   Overcast
11:53 AM 53.1 °F 51.1 °F 93% 29.85 in 3.0 mi Calm Calm - 0.00 in Rain Light Rain
12:53 PM 55.0 °F 53.1 °F 93% 29.83 in 4.0 mi North 3.5 mph - 0.00 in   Overcast
12:58 PM 55.0 °F 53.1 °F 93% 30.10 in 2.5 mi Calm Calm - N/A   Overcast
1:11 PM 55.0 °F 53.1 °F 93% 30.10 in 1.5 mi Variable 3.5 mph - N/A   Overcast
1:22 PM 55.0 °F 53.1 °F 93% 30.10 in 3.0 mi Calm Calm - N/A   Overcast
1:34 PM 55.0 °F 53.1 °F 93% 30.10 in 3.0 mi Calm Calm - N/A   Overcast
1:37 PM 55.0 °F 53.1 °F 93% 30.10 in 4.0 mi Calm Calm - N/A   Overcast
1:53 PM 55.0 °F 53.1 °F 93% 29.84 in 5.0 mi North 4.6 mph - N/A   Overcast
2:53 PM 54.0 °F 53.1 °F 97% 29.84 in 4.0 mi Variable 4.6 mph - N/A   Overcast
3:03 PM 54.0 °F 52.0 °F 93% 30.10 in 5.0 mi Variable 4.6 mph - N/A   Overcast
3:25 PM 53.1 °F 52.0 °F 96% 30.10 in 5.0 mi North 3.5 mph - N/A   Overcast
3:53 PM 55.9 °F 54.0 °F 93% 29.84 in 4.0 mi North 3.5 mph - 0.00 in Rain Light Rain
4:05 PM 57.0 °F 53.1 °F 87% 30.10 in 6.0 mi Calm Calm - 0.00 in   Overcast
4:17 PM 55.9 °F 52.0 °F 87% 30.09 in 9.0 mi Calm Calm - 0.00 in   Overcast
4:33 PM 57.0 °F 53.1 °F 87% 30.08 in 9.0 mi Calm Calm - 0.00 in   Overcast
4:41 PM 57.0 °F 52.0 °F 83% 30.08 in 10.0 mi Calm Calm - 0.00 in   Overcast
4:50 PM 57.2 °F 51.8 °F 82% 30.08 in 10.0 mi Calm Calm - 0.00 in   Overcast
4:53 PM 55.9 °F 52.0 °F 87% 29.83 in 10.0 mi Calm Calm - 0.00 in   Overcast
5:53 PM 55.0 °F 52.0 °F 89% 29.83 in 7.0 mi Calm Calm - N/A   Overcast
6:07 PM 55.0 °F 52.0 °F 89% 30.07 in 8.0 mi Calm Calm - N/A   Overcast
6:53 PM 54.0 °F 51.1 °F 90% 29.84 in 10.0 mi Variable 3.5 mph - N/A   Scattered Clouds
7:53 PM 52.0 °F 50.0 °F 93% 29.84 in 10.0 mi ESE 4.6 mph - N/A   Clear
8:53 PM 52.0 °F 50.0 °F 93% 29.86 in 9.0 mi SE 5.8 mph - N/A   Clear
9:53 PM 52.0 °F 50.0 °F 93% 29.87 in 4.0 mi SSE 6.9 mph - N/A   Partly Cloudy
10:03 PM 52.0 °F 50.0 °F 93% 30.08 in 2.0 mi SSE 5.8 mph - N/A   Mostly Cloudy
10:07 PM 52.0 °F 50.0 °F 93% 30.08 in 1.5 mi SSE 6.9 mph - N/A   Mostly Cloudy
10:19 PM 52.0 °F 50.0 °F 93% 30.08 in 1.0 mi SE 5.8 mph - N/A   Mist
10:28 PM 52.0 °F 50.0 °F 93% 30.07 in 2.0 mi SE 8.1 mph - N/A   Mostly Cloudy
10:36 PM 52.0 °F 50.0 °F 93% 30.07 in 4.0 mi SE 6.9 mph - N/A   Scattered Clouds
10:53 PM 52.0 °F 50.0 °F 93% 29.85 in 5.0 mi SE 6.9 mph - N/A   Clear
11:35 PM 52.0 °F 50.0 °F 93% 30.07 in 2.5 mi South 5.8 mph - N/A   Partly Cloudy
11:37 PM 52.0 °F 50.0 °F 93% 30.07 in 1.0 mi South 5.8 mph - N/A   Mist
11:40 PM 52.0 °F 50.0 °F 93% 30.07 in 0.2 mi South 4.6 mph - N/A Fog Fog
11:53 PM 52.0 °F 50.0 °F 93% 29.84 in 0.8 mi SSE 5.8 mph - N/A   Mist
11:55 PM 52.0 °F 50.0 °F 93% 30.07 in 1.5 mi SSE 5.8 mph - N/A   Mostly Cloudy